Change the Weather History Date:

Wednesday, May 22, 2013

  Actual Average Record
Temperature  
Mean Temperature 55 °F -  
Max Temperature 59 °F 75 °F 91 °F (1972)
Min Temperature 51 °F 47 °F 27 °F (1967)
Degree Days  
Heating Degree Days 10    
Growing Degree Days 5 (Base 50)    
Moisture  
Dew Point 54 °F    
Average Humidity 94    
Maximum Humidity 96    
Minimum Humidity 88    
Precipitation  
Precipitation 1.37 in - - ()
Sea Level Pressure  
Sea Level Pressure 29.71 in    
Wind  
Wind Speed 3 mph (NNE)    
Max Wind Speed 13 mph    
Max Gust Speed 17 mph    
Visibility 8 miles    
Events Rain    
Averages and records for this station are not official NWS values.
T = Trace of Precipitation, MM = Missing Value Source: NWS Daily Summary

Daily Weather History Graph

Daily Weather History Graph

Search for Another Location

Airport or City:

Trip Planner

Search our weather history database for the weather conditions in past years. The results will help you decide how hot, cold, wet, or windy it might be!

Date:

Astronomy

May. 22, 2013 Rise Set
Actual Time 5:29 AM CDT 8:29 PM CDT
Civil Twilight 4:55 AM CDT 9:04 PM CDT
Nautical Twilight 4:12 AM CDT 9:48 PM CDT
Astronomical Twilight 3:20 AM CDT 10:40 PM CDT
Moon 5:47 PM CDT (5/22) 3:40 AM CDT (5/22)
Length of Visible Light 16h 08m
Length of Day
14h 59m
Waxing Gibbous, 91% of the Moon is Illuminated
May 22
Waxing Gibbous
May 24
Full
May 31
Last Quarter
Jun 8
New
Jun 16
First Quarter

Hourly Weather History & Observations

Time (CDT) Temp. Dew Point Humidity Pressure Visibility Wind Dir Wind Speed Gust Speed Precip Events Conditions
12:15 AM 51.8 °F 50.5 °F 95% 29.69 in 10.0 mi ENE 3.5 mph - N/A   Clear
12:35 AM 52.7 °F 51.3 °F 95% 29.69 in 10.0 mi Calm Calm - N/A   Mostly Cloudy
12:55 AM 53.6 °F 52.3 °F 95% 29.69 in 10.0 mi Calm Calm - N/A   Overcast
1:15 AM 54.0 °F 52.7 °F 95% 29.69 in 10.0 mi Calm Calm - N/A   Overcast
1:35 AM 54.0 °F 52.5 °F 95% 29.69 in 10.0 mi Calm Calm - N/A   Overcast
1:55 AM 52.7 °F 51.4 °F 95% 29.68 in 10.0 mi Calm Calm - N/A   Overcast
2:15 AM 53.8 °F 52.7 °F 96% 29.68 in 10.0 mi Calm Calm - N/A   Overcast
2:35 AM 54.0 °F 52.7 °F 95% 29.67 in 10.0 mi Calm Calm - N/A   Overcast
2:55 AM 54.1 °F 52.3 °F 94% 29.67 in 10.0 mi Calm Calm - N/A   Overcast
3:15 AM 53.8 °F 52.3 °F 95% 29.67 in 10.0 mi Calm Calm - N/A   Overcast
3:35 AM 53.6 °F 52.3 °F 95% 29.67 in 10.0 mi Calm Calm - N/A   Overcast
3:55 AM 53.8 °F 52.7 °F 96% 29.67 in 10.0 mi Calm Calm - N/A   Overcast
4:15 AM 53.8 °F 52.7 °F 96% 29.67 in 10.0 mi Calm Calm - N/A   Overcast
4:35 AM 54.0 °F 52.7 °F 95% 29.67 in 10.0 mi Calm Calm - N/A   Overcast
4:55 AM 54.3 °F 52.9 °F 95% 29.67 in 10.0 mi Calm Calm - N/A   Overcast
5:15 AM 54.1 °F 52.9 °F 95% 29.67 in 10.0 mi Calm Calm - N/A   Overcast
5:35 AM 54.1 °F 52.7 °F 95% 29.67 in 10.0 mi Calm Calm - N/A   Overcast
6:15 AM 55.2 °F 53.6 °F 94% 29.67 in 10.0 mi Calm Calm - N/A   Overcast
6:35 AM 55.8 °F 54.3 °F 95% 29.67 in 10.0 mi Calm Calm - N/A   Overcast
6:55 AM 55.9 °F 54.3 °F 94% 29.67 in 10.0 mi Calm Calm - N/A   Overcast
7:15 AM 55.8 °F 54.0 °F 94% 29.66 in 10.0 mi Calm Calm - N/A   Overcast
7:35 AM 56.7 °F 54.9 °F 94% 29.66 in 10.0 mi Calm Calm - N/A   Overcast
7:55 AM 57.2 °F 54.9 °F 92% 29.66 in 10.0 mi Calm Calm - N/A   Overcast
8:15 AM 57.9 °F 55.6 °F 92% 29.66 in 10.0 mi Calm Calm - N/A   Overcast
8:35 AM 58.1 °F 55.6 °F 91% 29.66 in 10.0 mi Calm Calm - N/A   Overcast
8:55 AM 58.8 °F 55.8 °F 90% 29.67 in 10.0 mi North 3.5 mph - N/A   Overcast
9:15 AM 59.0 °F 55.8 °F 89% 29.67 in 10.0 mi Calm Calm - N/A   Overcast
9:35 AM 59.4 °F 55.9 °F 88% 29.67 in 10.0 mi Calm Calm - N/A   Overcast
9:55 AM 59.2 °F 56.3 °F 90% 29.67 in 7.0 mi Calm Calm - N/A Rain Rain
10:15 AM 59.0 °F 56.7 °F 92% 29.68 in 4.0 mi Calm Calm - N/A Rain Rain
10:35 AM 58.3 °F 57.0 °F 96% 29.68 in 2.0 mi NE 3.5 mph - 0.20 in Rain Heavy Rain
10:55 AM 58.1 °F 56.7 °F 95% 29.68 in 1.5 mi North 3.5 mph - 0.36 in Rain Heavy Rain
11:15 AM 57.7 °F 56.7 °F 96% 29.69 in 1.8 mi NNW 4.6 mph - 0.18 in Rain Heavy Rain
11:35 AM 57.6 °F 56.5 °F 96% 29.68 in 2.5 mi NNE 9.2 mph - 0.31 in Rain Rain
11:55 AM 57.4 °F 56.3 °F 96% 29.68 in 5.0 mi North 4.6 mph - 0.33 in Rain Heavy Rain
12:15 PM 57.4 °F 55.9 °F 95% 29.68 in 3.0 mi Calm Calm - 0.04 in Rain Rain
12:35 PM 57.6 °F 56.3 °F 96% 29.69 in 4.0 mi WSW 5.8 mph - 0.08 in Rain Heavy Rain
12:55 PM 57.4 °F 56.3 °F 96% 29.69 in 4.0 mi West 5.8 mph - 0.16 in Rain Rain
1:15 PM 57.7 °F 56.7 °F 96% 29.69 in 5.0 mi North 8.1 mph - 0.02 in Rain Rain
1:35 PM 57.9 °F 56.7 °F 96% 29.68 in 7.0 mi NNE 8.1 mph - 0.05 in Rain Rain
1:55 PM 58.1 °F 56.5 °F 94% 29.69 in 7.0 mi North 6.9 mph - 0.07 in Rain Rain
2:15 PM 57.7 °F 55.9 °F 94% 29.68 in 10.0 mi NNE 12.7 mph 17.3 mph 0.01 in Rain Rain
2:35 PM 58.1 °F 56.3 °F 94% 29.68 in 7.0 mi North 12.7 mph 17.3 mph 0.03 in Rain Rain
2:55 PM 58.3 °F 56.3 °F 93% 29.69 in 10.0 mi North 5.8 mph - 0.04 in Rain Light Rain
3:15 PM 58.5 °F 56.1 °F 92% 29.70 in 10.0 mi NE 5.8 mph - N/A Rain Light Rain
3:35 PM 58.3 °F 56.3 °F 93% 29.70 in 10.0 mi North 4.6 mph - N/A Rain Light Rain
3:55 PM 58.3 °F 56.3 °F 93% 29.70 in 10.0 mi North 4.6 mph - N/A Rain Light Rain
4:15 PM 58.3 °F 56.5 °F 94% 29.70 in 10.0 mi North 6.9 mph - N/A   Drizzle
4:35 PM 58.3 °F 56.5 °F 94% 29.70 in 10.0 mi North 6.9 mph - N/A Rain Rain
4:55 PM 58.5 °F 56.7 °F 94% 29.70 in 10.0 mi North 8.1 mph - N/A Rain Light Rain
5:15 PM 58.3 °F 56.7 °F 94% 29.70 in 7.0 mi North 5.8 mph - N/A Rain Rain
5:35 PM 58.5 °F 57.0 °F 95% 29.71 in 7.0 mi NNE 10.4 mph - N/A   Drizzle
5:55 PM 58.3 °F 56.7 °F 94% 29.72 in 5.0 mi NNE 8.1 mph - 0.02 in Rain Rain
6:15 PM 58.1 °F 56.7 °F 95% 29.72 in 3.0 mi North 8.1 mph - 0.11 in Rain Heavy Rain
6:35 PM 58.1 °F 56.7 °F 95% 29.72 in 5.0 mi NNE 5.8 mph - 0.16 in Rain Rain
6:55 PM 57.9 °F 56.3 °F 94% 29.73 in 5.0 mi NNE 11.5 mph 16.1 mph 0.22 in Rain Rain
7:15 PM 57.4 °F 55.9 °F 95% 29.74 in 10.0 mi North 8.1 mph - N/A Rain Light Rain
7:35 PM 57.2 °F 55.6 °F 94% 29.75 in 10.0 mi NNE 10.4 mph - 0.02 in Rain Light Rain
7:55 PM 56.7 °F 55.4 °F 96% 29.75 in 10.0 mi North 9.2 mph - 0.02 in Rain Light Rain
8:15 PM 56.3 °F 54.9 °F 95% 29.76 in 10.0 mi North 8.1 mph - 0.01 in Rain Light Rain
8:35 PM 55.8 °F 54.5 °F 96% 29.77 in 7.0 mi NNE 11.5 mph - 0.01 in Rain Light Rain
8:55 PM 55.4 °F 53.8 °F 94% 29.78 in 7.0 mi North 10.4 mph - 0.02 in Rain Light Rain
9:15 PM 55.2 °F 53.6 °F 94% 29.79 in 10.0 mi NNE 10.4 mph - 0.01 in Rain Light Rain
9:35 PM 54.5 °F 52.9 °F 94% 29.81 in 10.0 mi North 8.1 mph - 0.01 in Rain Light Rain
9:55 PM 54.0 °F 52.5 °F 95% 29.82 in 5.0 mi NNE 10.4 mph 16.1 mph 0.05 in Rain Rain
10:15 PM 53.1 °F 51.4 °F 94% 29.83 in 7.0 mi NNE 10.4 mph 17.3 mph 0.02 in Rain Light Rain
10:35 PM 52.9 °F 51.3 °F 94% 29.85 in 10.0 mi NNE 9.2 mph - 0.03 in Rain Rain
10:55 PM 52.7 °F 50.9 °F 94% 29.85 in 7.0 mi NNE 8.1 mph - 0.04 in   Drizzle
11:15 PM 52.0 °F 50.7 °F 95% 29.86 in 7.0 mi NNE 5.8 mph - 0.02 in Rain Rain
11:35 PM 51.8 °F 50.4 °F 95% 29.87 in 10.0 mi NNE 10.4 mph - 0.03 in Rain Light Rain
11:55 PM 51.8 °F 49.6 °F 92% 29.88 in 10.0 mi NNE 8.1 mph - 0.04 in   Drizzle